Find Starlink 36133

NORAD ID: 66963 Int'l Des: 2025-288 Owner: SPXS Country: US Constellation: starlink operational
LEOCIRCULAR

Current View

Loading 3D Globe...

About Starlink 36133

Description loading...

Upcoming Passes

Passes for default location (London). Set your location on the main map for personalized predictions.

Altitude History

Loading altitude history...

Two-Line Element Set

1 66963U 25288E 26146.15500115 .00018234 00000-0 67006-3 0 9992
2 66963 43.0047 306.0624 0002195 266.6546 93.4055 15.27600924 27138
Epoch: May 26, 2026 • Age: 12 hours

Current Status

Altitude 493.0 km
Velocity 7.62 km/s
Sub-Earth Point -38.45°S, 121.25°E
Launch Date Dec 8, 2025
Age 0.4 years
Type internet

Technical Details

Classification Payload
Mass 575.00 kg
Dry Mass 530.00 kg
Total Mass 575.00 kg
Length 0.30 m
Diameter 4.10 m
Span 29.00 m
Shape Box + pan
Manufacturer SPXS
Bus Type Starlink V2MO
Phase Status In Orbit
Owner/State SPXS/US

Most Searched